Regional Weather Roundup
Issued by NWS New Orleans/Baton Rouge, LA

Home | Current Version | Previous Version | Text Only | Print | Product List | Glossary Off
Versions: 1 2 3 4 5 6 7 8 9 10 11 12 13 14 15 16 17 18 19 20 21 22 23 24 25 26 27 28 29 30 31 32 33 34 35 36 37 38 39 40 41 42 43 44 45 46 47 48 49 50

224
ASUS44 KLIX 040601
RWRLIX
NEW ORLEANS REGIONAL WEATHER ROUNDUP
NATIONAL WEATHER SERVICE NEW ORLEANS LA
1200 AM CST WED MAR 04 2015

NOTE: "FAIR" INDICATES FEW OR NO CLOUDS BELOW 12,000 FEET WITH NO
      SIGNIFICANT WEATHER AND/OR OBSTRUCTIONS TO VISIBILITY.
      SKY/WX - SKY CONDITION AND SIGNIFICANT WEATHER.
      TMP - AIR TEMPERATURE.     DP    - DEWPOINT TEMPERATURE.
      RH  - RELATIVE HUMIDITY.   PRES  - PRESSURE.
      HI  - HEAT INDEX.          WCI   - WIND CHILL INDEX.

*  THESE STATIONS ARE NOT NWS OR FAA STATIONS AND ARE NOT UNDER
   NWS QUALITY CONTROL.

LAZ038-040-048-061>063-065>067-069-040700-
SOUTHEAST LOUISIANA

CITY           SKY/WX    TMP DP  RH WIND       PRES   REMARKS
N.O. AUDUBON     N/A     68  68 100 MISG        N/A
6HR MIN TEMP:  68; 6HR MAX TEMP:  73;

N.O. INTL ARPT MOCLDY    69  65  86 S3        30.00S
6HR MIN TEMP:  68; 6HR MAX TEMP:  73;

N.O. LAKEFRONT MOCLDY    69  65  86 SE6       30.01F
6HR MIN TEMP:  69; 6HR MAX TEMP:  76;

SLIDELL        CLOUDY    68  68 100 SE9       30.01S
6HR MIN TEMP:  68; 6HR MAX TEMP:  71;

BATON ROUGE    PTCLDY    68  67  96 SE7       29.98S
6HR MIN TEMP:  68; 6HR MAX TEMP:  72;

BOOTHVILLE     FOG       63  63 100 E5        30.03S VSB 1/2
6HR MIN TEMP:  63; 6HR MAX TEMP:  71;

BELLE CHASSE   MOCLDY    68  65  90 SE7       30.00S
6HR MIN TEMP:  68; 6HR MAX TEMP:  74;

BOGALUSA*        N/A     70  66  86 S5        30.02F
6HR MIN TEMP:  69; 6HR MAX TEMP:  74;

GALLIANO*      MOCLDY    68  66  93 CALM      30.01S
6HR MIN TEMP:  68; 6HR MAX TEMP:  75;

NEW ROADS*     NOT AVBL
GONZALES*      NOT AVBL
HAMMOND*       NOT AVBL
HOUMA*         CLOUDY    70  69  96 S5        30.00S
6HR MIN TEMP:  70; 6HR MAX TEMP:  73;

PORT FOURCHON* CLOUDY    70  68  94 CALM      30.03F

$$

MSZ070-080>082-040700-
SOUTHERN MISSISSIPPI

CITY           SKY/WX    TMP DP  RH WIND       PRES   REMARKS
MCCOMB         CLOUDY    67  65  93 S7        29.99F
6HR MIN TEMP:  66; 6HR MAX TEMP:  69; 6HR PCP:  0.13;

GULFPORT       CLOUDY    64  63  96 SE10      30.03F FOG
6HR MIN TEMP:  64; 6HR MAX TEMP:  66;

BILOXI         FOG       66  66 100 SE9       30.03F VSB 3/4
6HR MIN TEMP:  66; 6HR MAX TEMP:  67;

PASCAGOULA     CLOUDY    66  65  96 S13       30.04F
6HR MIN TEMP:  64; 6HR MAX TEMP:  67;


$$

COASTAL OBSERVATIONS
LAKE AND NEARSHORE STATIONS

STATION/POSITION TIME  TEMP    WIND        PRES    WAVE
                       AIR SEA DIR/SP/G            HT/PER
                 (UTC) (F)     (DEG/KT/KT) (MB)    (FT/S)
PASCAGOULA       0519   64     130/  5/  9 1017.1
WAVELAND YACHT   0519   63 59  150/  9/ 12 1016.7
GRAND ISLE       0519   67 64  130/  5/  7 1016.8
SOUTHWEST PASS   0519   62 46  150/  8/ 10 1016.8
NEW CANAL        0519   68     150/  1/  4 1016.6
SHELL BEACH      0519   67 62  130/  9/ 10 1016.5

OFFSHORE STATIONS

STATION/POSITION TIME  TEMP    WIND        PRES    WAVE
                       AIR SEA DIR/SP/G            HT/PER
                 (UTC) (F)     (DEG/KT/KT) (MB)    (FT/S)
64 S DAUPHIN ISL 0520   71 71  150/ 17/ 21 1017.3    4/ 6

$$




USA.gov is the U.S. government's official web portal to all federal, state and local government web resources and services.